Location: Grasslands National Park East Block
(49.0708°N, 106.5295°W)
Time: 18:15:48
(UTC-06:00)

Vanguard 1 Rocket - Pass Details

Date: 23 September 2019
Orbit: 650 x 4226 km, 34.3° (Epoch: 19 October)

Event Time Altitude Azimuth Distance (km) Brightness Sun altitude
Rises 19:38:28 0° 248° (WSW) 8,305 13.5 -6.8°
Reaches altitude 10° 19:45:00 10° 244° (WSW) 6,988 12.8 -7.8°
Maximum altitude 20:04:21 45° 182° (S) 3,325 10.1 -11.0°
Enters shadow 20:14:18 14° 117° (ESE) 3,879 10.0 -12.5°
Drops below altitude 10° 20:15:14 10° 114° (ESE) 4,071 - -12.7°
Sets 20:17:56 0° 107° (ESE) 4,706 - -13.1°
